Location: ČR
(50.0000°N, 15.0000°E)
Time: 14:25:28
(UTC+00:00)

O/OREOS (USA 219) - Pass Details

Date: 12 December 2021
Orbit: 621 x 646 km, 72.0° (Epoch: 22 May)

Event Time Altitude Azimuth Distance (km) Brightness Sun altitude
Rises 18:24:10 0° 329° (NNW) 2,959 ? -31.8°
Reaches altitude 10° 18:26:29 10° 324° (NW) 2,048 ? -32.2°
Enters shadow 18:28:20 23° 314° (NW) 1,377 ? -32.5°
